Fargo, ND

8:13 PM CST on December 10, 2016 (GMT -0600)
Hector International

Weather History for KFAR - April, 2013

Change the Weather History Date:

Friday, April 12, 2013

  Actual Average Record
Temperature  
Mean Temperature 31 °F 42 °F  
Max Temperature 34 °F 54 °F 76 °F (1954)
Min Temperature 28 °F 31 °F 1 °F (1881)
Degree Days  
Heating Degree Days 34 23  
Month to date heating degree days 440 308  
Since 1 July heating degree days 8501 8138  
Cooling Degree Days 0 0  
Month to date cooling degree days 0 0  
Year to date cooling degree days 0 0  
Moisture  
Dew Point 26 °F    
Average Humidity 84    
Maximum Humidity 92    
Minimum Humidity 75    
Precipitation  
Precipitation 0.06 in 0.04 in 0.98 in (1893)
Month to date precipitation 0.90 0.47  
Year to date precipitation 4.53 3.08  
Snow  
Snow 0.90 in 0.10 in 2.00 in (1924)
Month to date snowfall 4.0 1.5  
Since 1 July snowfall 55.7 48.6  
Snow Depth 7.00 in    
Sea Level Pressure  
Sea Level Pressure 29.88 in    
Wind  
Wind Speed 13 mph (North)    
Max Wind Speed 18 mph    
Max Gust Speed 36 mph    
Visibility 4 miles    
Events Fog , Snow    
T = Trace of Precipitation, MM = Missing Value Source: NWS Daily Summary

Daily Weather History Graph

Daily Weather History Graph

Search for Another Location

Airport or City:

Trip Planner

Search our weather history database for the weather conditions in past years. The results will help you decide how hot, cold, wet, or windy it might be!

Date:

Astronomy

Apr. 12, 2013 Rise Set
Actual Time 6:44 AM CDT 8:12 PM CDT
Civil Twilight 6:13 AM CDT 8:43 PM CDT
Nautical Twilight 5:34 AM CDT 9:22 PM CDT
Astronomical Twilight 4:53 AM CDT 10:03 PM CDT
Moon 7:47 AM CDT (4/12) 10:53 PM CDT (4/12)
Length of Visible Light 14h 30m
Length of Day
13h 27m
Waxing Crescent, 5% of the Moon is Illuminated
Apr 12
Waxing Crescent
Apr 18
First Quarter
Apr 25
Full
May 2
Last Quarter
May 9
New

Hourly Weather History & Observations

Time (CDT) Temp. Windchill Dew Point Humidity Pressure Visibility Wind Dir Wind Speed Gust Speed Precip Events Conditions
12:32 AM 28.4 °F 18.5 °F 24.8 °F 86% 29.86 in 10.0 mi NNE 11.5 mph - 0.00 in   Overcast
12:53 AM 28.0 °F 18.1 °F 23.0 °F 81% 29.90 in 10.0 mi NNE 11.5 mph - 0.00 in   Overcast
1:49 AM 28.4 °F 18.5 °F 23.0 °F 80% 29.85 in 10.0 mi NNE 11.5 mph - N/A   Overcast
1:53 AM 28.0 °F 17.5 °F 23.0 °F 81% 29.89 in 10.0 mi NNE 12.7 mph - N/A   Overcast
2:53 AM 28.0 °F 17.0 °F 23.0 °F 81% 29.88 in 10.0 mi NNE 13.8 mph - N/A   Overcast
3:53 AM 28.0 °F 18.1 °F 23.0 °F 81% 29.87 in 10.0 mi NNE 11.5 mph - N/A   Overcast
4:53 AM 28.0 °F 19.3 °F 23.0 °F 81% 29.87 in 10.0 mi NNE 9.2 mph - N/A   Overcast
5:32 AM 28.4 °F 18.5 °F 23.0 °F 80% 29.83 in 1.8 mi NNE 11.5 mph - 0.00 in Snow Light Snow
5:53 AM 28.0 °F 18.6 °F 24.1 °F 85% 29.87 in 1.8 mi NNE 10.4 mph - 0.00 in Snow Light Snow
6:04 AM 28.4 °F 19.7 °F 24.8 °F 86% 29.83 in 2.5 mi NNE 9.2 mph - 0.00 in Snow Light Snow
6:11 AM 28.4 °F 20.4 °F 24.8 °F 86% 29.83 in 4.0 mi North 8.1 mph - 0.01 in Snow Light Snow
6:53 AM 28.0 °F - 24.1 °F 85% 29.87 in 3.0 mi North - - 0.01 in Snow Light Snow
6:57 AM 28.4 °F 19.7 °F 24.8 °F 86% 29.83 in 1.8 mi NNE 9.2 mph - 0.00 in Snow Light Snow
7:10 AM 28.4 °F 19.1 °F 24.8 °F 86% 29.84 in 1.2 mi NNE 10.4 mph - 0.00 in Snow Light Snow
7:18 AM 28.4 °F 19.1 °F 24.8 °F 86% 29.84 in 1.2 mi NNE 10.4 mph - 0.00 in Snow Light Snow
7:31 AM 28.4 °F - 24.8 °F 86% 29.84 in 2.5 mi North - - 0.00 in Snow Light Snow
7:38 AM 28.4 °F - 24.8 °F 86% 29.84 in 3.0 mi North - - 0.00 in Snow Light Snow
7:53 AM 28.0 °F - 24.1 °F 85% 29.88 in 4.0 mi North - - 0.00 in Snow Light Snow
8:07 AM 28.4 °F 19.1 °F 24.8 °F 86% 29.84 in 1.8 mi NNE 10.4 mph - 0.00 in Snow Light Snow
8:45 AM 28.4 °F 19.7 °F 24.8 °F 86% 29.84 in 1.8 mi NNE 9.2 mph - 0.00 in Snow Light Snow
8:53 AM 28.9 °F 19.2 °F 24.1 °F 82% 29.88 in 1.5 mi NNE 11.5 mph - 0.00 in Snow Light Snow
9:03 AM 28.4 °F 19.1 °F 24.8 °F 86% 29.84 in 1.8 mi NNE 10.4 mph - 0.00 in Snow Light Snow
9:10 AM 28.4 °F 19.1 °F 24.8 °F 86% 29.84 in 1.8 mi NNE 10.4 mph - 0.00 in Snow Light Snow
9:21 AM 28.4 °F - 24.8 °F 86% 29.84 in 2.5 mi North - - 0.00 in Snow Light Snow
9:35 AM 30.2 °F - 24.8 °F 80% 29.84 in 2.5 mi North - - N/A Snow Light Snow
9:51 AM 28.4 °F 18.0 °F 24.8 °F 86% 29.84 in 3.0 mi NNE 12.7 mph 21.9 mph 0.00 in Snow Light Snow
9:53 AM 28.9 °F 16.5 °F 24.1 °F 82% 29.88 in 3.0 mi NNE 18.4 mph 34.5 mph 0.00 in Snow Light Snow
10:46 AM 30.2 °F 20.2 °F 24.8 °F 80% 29.85 in 2.0 mi NNE 12.7 mph - 0.00 in Snow Light Snow
10:53 AM 30.9 °F 20.7 °F 26.1 °F 82% 29.89 in 2.5 mi North 13.8 mph - 0.00 in Snow Light Snow
11:02 AM 30.2 °F 19.3 °F 24.8 °F 80% 29.85 in 3.0 mi NNE 15.0 mph - 0.00 in Snow Light Snow
11:25 AM 30.2 °F 20.2 °F 24.8 °F 80% 29.86 in 8.0 mi North 12.7 mph - 0.00 in   Overcast
11:35 AM 30.2 °F 18.9 °F 24.8 °F 80% 29.86 in 7.0 mi North 16.1 mph - 0.00 in   Overcast
11:53 AM 30.0 °F 19.1 °F 25.0 °F 82% 29.90 in 4.0 mi North 15.0 mph - 0.00 in Snow Light Snow
12:04 PM 30.2 °F 19.3 °F 24.8 °F 80% 29.86 in 2.0 mi North 15.0 mph - 0.00 in Snow Light Snow
12:26 PM 30.2 °F 18.9 °F 26.6 °F 86% 29.86 in 1.5 mi North 16.1 mph - 0.00 in Snow Light Snow
12:42 PM 30.2 °F 19.3 °F 24.8 °F 80% 29.86 in 1.5 mi North 15.0 mph - 0.00 in Snow Light Snow
12:53 PM 30.9 °F 20.2 °F 26.1 °F 82% 29.90 in 1.5 mi North 15.0 mph - 0.00 in Snow Light Snow
1:16 PM 30.2 °F - 26.6 °F 86% 29.86 in 2.0 mi North - - 0.00 in Snow Light Snow
1:28 PM 30.2 °F - 26.6 °F 86% 29.86 in 3.0 mi North - - 0.00 in Snow Light Snow
1:53 PM 32.0 °F - 26.1 °F 79% 29.90 in 4.0 mi North - - 0.00 in Snow Light Snow
2:07 PM 32.0 °F - 26.6 °F 80% 29.86 in 5.0 mi North - - 0.00 in   Haze
2:41 PM 33.8 °F 23.5 °F 26.6 °F 75% 29.86 in 8.0 mi North 16.1 mph - 0.00 in   Overcast
2:53 PM 33.1 °F 22.2 °F 26.1 °F 75% 29.90 in 10.0 mi North 17.3 mph - 0.00 in   Overcast
3:53 PM 33.1 °F 23.9 °F 26.1 °F 75% 29.90 in 10.0 mi North 12.7 mph - N/A   Overcast
4:11 PM 32.0 °F 21.6 °F 26.6 °F 80% 29.86 in 7.0 mi North 15.0 mph - 0.00 in Snow Light Snow
4:26 PM 33.8 °F 24.3 °F 26.6 °F 75% 29.86 in 10.0 mi North 13.8 mph 24.2 mph 0.00 in   Overcast
4:51 PM 32.0 °F 22.1 °F 26.6 °F 80% 29.86 in 9.0 mi North 13.8 mph - 0.00 in   Overcast
4:53 PM 32.0 °F 22.1 °F 27.0 °F 82% 29.90 in 9.0 mi North 13.8 mph - 0.00 in   Overcast
5:02 PM 33.8 °F 23.9 °F 26.6 °F 75% 29.86 in 10.0 mi North 15.0 mph - N/A   Overcast
5:41 PM 32.0 °F 22.5 °F 26.6 °F 80% 29.88 in 2.5 mi NNW 12.7 mph - 0.00 in Snow Light Snow
5:45 PM 32.0 °F 22.5 °F 26.6 °F 80% 29.88 in 1.8 mi NNW 12.7 mph - 0.00 in Snow Light Snow
5:53 PM 30.9 °F 20.2 °F 28.0 °F 89% 29.92 in 1.0 mi NNW 15.0 mph - 0.00 in Snow Light Snow
6:00 PM 30.2 °F 20.8 °F 28.4 °F 93% 29.88 in 0.5 mi North 11.5 mph - 0.01 in Fog , Snow Light Snow
6:14 PM 30.2 °F 20.2 °F 28.4 °F 93% 29.88 in 1.5 mi NNW 12.7 mph - 0.01 in Snow Light Snow
6:29 PM 30.2 °F 19.8 °F 26.6 °F 86% 29.88 in 3.0 mi NNW 13.8 mph - 0.01 in Snow Light Snow
6:36 PM 30.2 °F - 26.6 °F 86% 29.89 in 5.0 mi North - - 0.01 in Snow Light Snow
6:45 PM 30.2 °F 19.8 °F 26.6 °F 86% 29.89 in 10.0 mi NNW 13.8 mph - 0.01 in   Overcast
6:53 PM 30.9 °F 20.7 °F 27.0 °F 85% 29.93 in 10.0 mi NNW 13.8 mph - 0.01 in   Overcast
7:12 PM 30.2 °F 19.8 °F 26.6 °F 86% 29.89 in 1.8 mi NNW 13.8 mph - 0.00 in Snow Light Snow
7:27 PM 30.2 °F 19.8 °F 26.6 °F 86% 29.89 in 2.5 mi NNW 13.8 mph - 0.00 in Snow Light Snow
7:53 PM 30.9 °F 22.2 °F 27.0 °F 85% 29.93 in 3.0 mi NNW 10.4 mph - 0.00 in Snow Light Snow
8:06 PM 30.2 °F 21.9 °F 26.6 °F 86% 29.89 in 2.0 mi NW 9.2 mph - 0.00 in Snow Light Snow
8:16 PM 30.2 °F 21.9 °F 26.6 °F 86% 29.89 in 2.5 mi NW 9.2 mph - 0.00 in Snow Light Snow
8:23 PM 30.2 °F 20.2 °F 26.6 °F 86% 29.89 in 3.0 mi NW 12.7 mph - 0.00 in Snow Light Snow
8:36 PM 30.2 °F 20.8 °F 26.6 °F 86% 29.89 in 3.0 mi NNW 11.5 mph - 0.00 in Snow Light Snow
8:53 PM 30.0 °F 21.7 °F 27.0 °F 88% 29.93 in 4.0 mi NW 9.2 mph - 0.00 in Snow Light Snow
9:21 PM 30.2 °F 21.9 °F 26.6 °F 86% 29.90 in 2.5 mi NW 9.2 mph - 0.00 in Snow Light Snow
9:28 PM 30.2 °F 21.9 °F 26.6 °F 86% 29.90 in 2.5 mi NW 9.2 mph - 0.00 in Snow Light Snow
9:37 PM 30.2 °F 21.9 °F 26.6 °F 86% 29.90 in 4.0 mi NW 9.2 mph - 0.00 in Snow Light Snow
9:53 PM 30.0 °F 20.5 °F 26.1 °F 85% 29.94 in 3.0 mi NW 11.5 mph - 0.00 in Snow Light Snow
10:12 PM 30.2 °F 20.8 °F 26.6 °F 86% 29.90 in 1.8 mi NW 11.5 mph - 0.00 in Snow Light Snow
10:22 PM 30.2 °F 21.3 °F 26.6 °F 86% 29.90 in 2.0 mi NW 10.4 mph - 0.00 in Snow Light Snow
10:34 PM 30.2 °F 22.6 °F 26.6 °F 86% 29.90 in 1.8 mi NW 8.1 mph - 0.00 in Snow Light Snow
10:43 PM 30.2 °F 21.3 °F 26.6 °F 86% 29.90 in 2.5 mi NW 10.4 mph - 0.00 in Snow Light Snow
10:48 PM 30.2 °F 20.8 °F 26.6 °F 86% 29.90 in 3.0 mi NW 11.5 mph - 0.00 in Snow Light Snow
10:53 PM 30.0 °F 21.1 °F 26.1 °F 85% 29.94 in 3.0 mi NW 10.4 mph - 0.00 in Snow Light Snow
11:05 PM 28.4 °F 19.1 °F 26.6 °F 93% 29.90 in 3.0 mi NW 10.4 mph - N/A Snow Light Snow
11:26 PM 30.2 °F 21.9 °F 26.6 °F 86% 29.90 in 3.0 mi NW 9.2 mph - 0.00 in Snow Light Snow
11:53 PM 28.9 °F 20.4 °F 26.1 °F 89% 29.94 in 4.0 mi NW 9.2 mph - 0.00 in Snow Light Snow